Location: Newark
(48.2308°N, 120.8549°W)
Time: 05:39:09
(UTC+00:00)

Transit 2A Rocket - Visible Passes

Search period start: 06 June 2020 00:00
Search period end: 16 June 2020 00:00
Orbit: 585 x 918 km, 66.7° (Epoch: 05 June)

Date Brightness Start Highest point End Pass type
(mag) Time Alt. Az. Time Alt. Az. Time Alt. Az.
06 Jun 5.2 04:39:33 10° SSW 04:44:29 52° ESE 04:49:57 10° NE visible
06 Jun 6.8 06:22:32 10° WSW 06:27:23 35° NW 06:32:38 10° NNE visible
06 Jun 8.1 08:08:44 10° NW 08:11:50 15° NNW 08:15:03 10° NNE visible
06 Jun 8.3 09:54:14 10° NNW 09:57:04 13° N 09:59:57 10° NE visible
07 Jun 6.1 05:39:27 10° WSW 05:44:33 50° NW 05:50:09 10° NNE visible
07 Jun 8.0 07:24:58 10° WNW 07:28:38 18° NNW 07:32:28 10° NNE visible
07 Jun 8.4 09:11:18 10° NNW 09:13:46 13° N 09:16:17 10° NNE visible
07 Jun 8.1 10:54:16 10° NNW 10:58:46 21° NNE 11:03:21 10° ENE visible
08 Jun 5.4 04:56:39 10° SW 05:01:51 75° NW 05:07:36 10° NNE visible
08 Jun 7.8 06:41:18 10° W 06:45:31 22° NNW 06:49:59 10° NNE visible
08 Jun 8.4 08:27:59 10° NNW 08:30:27 13° N 08:32:59 10° NNE visible
08 Jun 8.3 10:11:46 10° NNW 10:15:38 17° NNE 10:19:34 10° ENE visible
09 Jun 7.4 05:57:50 10° W 06:02:29 29° NW 06:07:30 10° NNE visible
09 Jun 8.4 07:44:20 10° NW 07:47:10 14° N 07:50:04 10° NNE visible
09 Jun 8.5 09:29:10 10° NNW 09:32:24 15° NNE 09:35:42 10° NE visible
09 Jun 7.5 11:11:32 10° NNW 11:16:57 33° NE 11:22:26 10° ESE visible
10 Jun 6.7 05:14:35 10° WSW 05:19:35 39° NW 05:25:01 10° NNE visible
10 Jun 8.3 07:00:34 10° NW 07:03:54 16° NNW 07:07:23 10° NNE visible
10 Jun 8.6 08:46:24 10° NNW 08:49:08 13° N 08:51:54 10° NE visible
10 Jun 7.9 10:29:04 10° NNW 10:33:58 25° NNE 10:38:57 10° E visible
11 Jun 6.0 04:31:36 10° SW 04:36:47 57° NW 04:42:30 10° NNE visible
11 Jun 8.2 06:16:49 10° WNW 06:20:44 19° NNW 06:24:51 10° NNE visible
11 Jun 8.7 08:03:20 10° NNW 08:05:49 13° N 08:08:20 10° NNE visible
11 Jun 8.2 09:46:35 10° NNW 09:50:54 20° NNE 09:55:16 10° ENE visible
12 Jun 7.8 05:33:13 10° W 05:37:39 24° NNW 05:42:21 10° NNE visible
12 Jun 8.6 07:19:53 10° NNW 07:22:30 13° N 07:25:11 10° NNE visible
12 Jun 8.5 09:04:03 10° NNW 09:07:44 16° NNE 09:11:27 10° ENE visible
12 Jun 7.0 10:46:21 10° NNW 10:52:03 40° NE 10:57:47 10° ESE visible
13 Jun 7.3 04:49:50 10° WSW 04:54:39 32° NW 04:59:52 10° NNE visible
13 Jun 8.5 06:36:11 10° NW 06:39:13 14° NNW 06:42:21 10° NNE visible
13 Jun 8.5 08:21:24 10° NNW 08:24:28 14° NNE 08:27:36 10° NE visible
13 Jun 7.5 10:03:52 10° NNW 10:09:08 30° NE 10:14:28 10° E visible
14 Jun 8.3 05:52:24 10° WNW 05:55:59 17° NNW 05:59:44 10° NNE visible
14 Jun 8.5 07:38:32 10° NNW 07:41:11 13° N 07:43:52 10° NNE visible
14 Jun 7.9 09:21:24 10° NNW 09:26:07 23° NNE 09:30:55 10° E visible
14 Jun 5.8 11:03:42 10° NNW 11:09:49 72° NE 11:15:55 10° SE visible
15 Jun 8.2 05:08:42 10° WNW 05:12:51 21° NNW 05:17:12 10° NNE visible
15 Jun 8.5 06:55:19 10° NNW 06:57:51 13° N 07:00:28 10° NNE visible
15 Jun 8.2 08:38:54 10° NNW 08:43:00 18° NNE 08:47:10 10° ENE visible
15 Jun 6.4 10:21:10 10° NNW 10:27:06 50° NE 10:33:02 10° ESE visible
